Regional Weather Roundup
Issued by NWS

Home | Current Version | Previous Version | Text Only | Print | Product List | Glossary Off
Versions: 1 2 3 4 5 6 7 8 9 10 11 12 13 14 15 16 17 18 19 20 21 22 23 24 25 26

000
ASUS45 KTFX 260310
RWRMT
MONTANA REGIONAL WEATHER ROUNDUP
NATIONAL WEATHER SERVICE GREAT FALLS MT
900 PM MDT WED MAY 25 2016

NOTE: "FAIR" INDICATES FEW OR NO CLOUDS BELOW 12000 FEET WITH NO
SIGNIFICANT WEATHER AND/OR OBSTRUCTIONS TO VISIBILITY.

MTZ001>007-043-260400-
WEST OF THE DIVIDE

CITY           SKY/WX    TMP DP  RH WIND       PRES   REMARKS
KALISPELL      PTCLDY    56  52  86 S5        29.95S
MISSOULA       MOCLDY    62  45  53 CALM      29.99R
BUTTE          PTCLDY    54  32  43 NW10      30.01R
MULLAN PASS    MOCLDY    45  41  86 NW9       30.07S
ANACONDA         N/A     54  36  50 W6        30.00R
DEER LODGE       N/A     54  37  54 NW7       30.01R
EUREKA           N/A     63  48  59 SE8       29.92R
HAMILTON         N/A     61  41  48 W6        30.00R
LIBBY            N/A     61  50  67 CALM      29.96R
$$

MTZ008-052>055-260400-
SOUTHWEST MONTANA

CITY           SKY/WX    TMP DP  RH WIND       PRES   REMARKS
BOZEMAN        CLOUDY    56  39  53 N9        29.95R
DILLON         CLEAR     55  32  41 NW7       29.98R
ENNIS          MOCLDY    54  41  62 SE12      30.03S
$$

MTZ009-010-012-014-046-048-049-054-260400-
EAST SLOPES AND CENTRAL MONTANA

CITY           SKY/WX    TMP DP  RH WIND       PRES   REMARKS
CUT BANK         N/A     54  41  61 N7        29.91R
GREAT FALLS    CLOUDY    55  45  68 NW12      29.91R
MALMSTROM AFB  CLOUDY    58  47  66 NE6       29.90R
HELENA         CLOUDY    56  45  66 NE3       29.92R
CHOTEAU          N/A     54  46  76 NW8       29.92S
$$

MTZ011-013-016-021-045-047-050-051-260400-
NORTH CENTRAL MONTANA

CITY           SKY/WX    TMP DP  RH WIND       PRES   REMARKS
HAVRE            N/A    N/A N/A N/A MISG      29.87R
LEWISTOWN      CLOUDY    49  43  80 S9        29.91R
N BAR RANCH    MOCLDY    45  41  87 W6        29.92F
CHINOOK          N/A     55  45  67 CALM      29.87S
$$

MTZ017>020-022>027-061-062-260400-
NORTHEAST MONTANA

CITY           SKY/WX    TMP DP  RH WIND       PRES   REMARKS
GLASGOW        CLEAR     55  44  66 N9        29.82S
JORDAN           N/A     56  45  66 W5        29.84R
SIDNEY         CLEAR     52  47  83 NW5       29.82S
WOLF POINT     CLOUDY    58  49  72 NE3       29.83R
PLENTYWOOD       N/A     52  50  93 NW5       29.83R
$$

MTZ028>42-056>058-260400-
SOUTHCENTRAL AND SOUTHEAST MONTANA

CITY           SKY/WX    TMP DP  RH WIND       PRES   REMARKS
BAKER          CLOUDY    57  44  62 CALM      29.86R
BILLINGS       CLOUDY    52  44  74 N17G23    29.90R
LIVINGSTON     CLOUDY    54  37  52 NW14G23   29.94R
MILES CITY     PTCLDY    55  49  80 SW3       29.85S
FORSYTH          N/A     55  48  76 CALM      29.85S
$$

REGIONAL REPORTS...DAKOTAS

CITY           SKY/WX    TMP DP  RH WIND       PRES   REMARKS
WILLISTON      CLEAR     49  46  90 N5        29.81F
MINOT          CLOUDY    59  55  87 S5        29.75S
DICKINSON      CLEAR     46  41  82 W5        29.81S
BEACH            N/A     50  45  81 NW6       29.87S
CROSBY         CLOUDY    54  54 100 W12       29.81S
WATFORD CITY     N/A     52  46  82 W5        29.82S
BISMARCK       CLOUDY    59  53  80 NW12      29.78S
GRAND FORKS    CLOUDY    59  57  93 W10       29.69R
FARGO          CLEAR     60  56  86 SW6       29.73S
BUFFALO SD       N/A     58  45  62 NW9       29.80S
RAPID CITY     PTCLDY    50  48  93 NW6       29.90R
$$

REGIONAL REPORTS...WYOMING/IDAHO/WASHINGTON

CITY           SKY/WX    TMP DP  RH WIND       PRES   REMARKS
GILLETTE       CLOUDY    44  42  93 N3        29.95R
SHERIDAN       CLOUDY    49  45  86 CALM      29.90S
BUFFALO WY       N/A     52  40  63 W9        29.94F
CODY           CLOUDY    55  36  47 W10G16    29.94S
YELLOWSTONE LA   N/A     35  33  92 CALM      30.10S
IDAHO FALLS    MOCLDY    55  40  56 S8        30.02S
SALMON         CLEAR     59  36  41 NW7       29.96R
BOISE          CLEAR     68  37  32 W6        29.96S
SPOKANE        MOCLDY    68  41  37 SW10      29.97S
$$

REGIONAL REPORTS...ALBERTA

CITY           SKY/WX    TMP DP  RH WIND       PRES   REMARKS
EDMONTON       LGT RAIN  57  50  77 W6        29.87R
CALGARY        LGT RAIN  57  48  72 NW24G30   29.92R
LETHBRIDGE     PTCLDY    57  45  62 VRB6      29.89R
MEDICINE HAT   PTCLDY    59  46  63 NE9       29.89R
WATERTON GATE    N/A     52  45  76 SW10        N/A
MILK RIVER       N/A     52  45  76 NE8         N/A
ONEFOUR          N/A     57  45  62 N2          N/A
$$

REGIONAL REPORTS...SASKATCHEWAN

CITY           SKY/WX    TMP DP  RH WIND       PRES   REMARKS
SWIFT CURRENT  CLOUDY    52  48  87 E8        29.87R
REGINA         LGT RAIN  54  52  94 N9        29.84F
SASKATOON      MOCLDY    61  48  63 N8        29.88R
CYPRESS HILLS    N/A     46  41  81 N5          N/A
VAL MARIE        N/A     54  46  76 N9          N/A
ROCKGLEN         N/A     48  45  87 NE6         N/A
ASSINIBOIA       N/A     63  46  55 SE6         N/A
$$




USA.gov is the U.S. government's official web portal to all federal, state and local government web resources and services.